Location: Pordenone
(45.9640°N, 12.6580°E)
Time: 01:42:18
(UTC+02:00)

ISS - Pass Details

Date: 16 May 2021
Orbit: 417 x 422 km, 51.6° (Epoch: 14 June)

Event Time Altitude Azimuth Distance (km) Brightness Sun altitude
Rises 04:29:17 0° 291° (WNW) 2,374 -0.2 -10.3°
Reaches altitude 10° 04:31:37 10° 277° (W) 1,506 -1.3 -10.0°
Maximum altitude 04:34:25 24° 222° (SW) 912 -2.6 -9.6°
Drops below altitude 10° 04:37:13 10° 165° (SSE) 1,500 -1.2 -9.3°
Sets 04:39:32 0° 152° (SSE) 2,360 -0.1 -8.9°
